Crosby, ND

7:44 PM CST on December 09, 2019 (GMT -0600)
Crosby

Weather History for KD50 - August, 2019

Change the Weather History Date:

Tuesday, August 27, 2019

  Actual Average (KISN) Record (KISN)
Temperature  
Mean Temperature 57 °F -  
Max Temperature 64 °F 82 °F 100 °F (1991)
Min Temperature 50 °F 53 °F 35 °F (1982)
Degree Days  
Heating Degree Days 8    
Growing Degree Days 7 (Base 50)    
Moisture  
Dew Point 49 °F    
Average Humidity 77    
Maximum Humidity 100    
Minimum Humidity 59    
Precipitation  
Precipitation 0.00 in - - ()
Sea Level Pressure  
Sea Level Pressure 29.94 in    
Wind  
Wind Speed 16 mph (WNW)    
Max Wind Speed 28 mph    
Max Gust Speed 37 mph    
Visibility 10 miles    
Events      
Averages and records for this station are not official NWS values.
T = Trace of Precipitation, MM = Missing Value Source: NWS Daily Summary

Daily Weather History Graph

Daily Weather History Graph

Search for Another Location

Airport or City:

Astronomy

Aug. 27, 2019 Rise Set
Actual Time 7:02 AM CDT 8:45 PM CDT
Civil Twilight 6:29 AM CDT 9:19 PM CDT
Nautical Twilight 5:48 AM CDT 10:00 PM CDT
Astronomical Twilight 5:02 AM CDT 10:44 PM CDT
Moon 3:10 AM CDT (8/27) 7:26 PM CDT (8/27)
Length of Visible Light 14h 50m
Length of Day
13h 43m
Waning Crescent, 11% of the Moon is Illuminated
Aug 27
Waning Crescent
Aug 30
New
Sep 5
First Quarter
Sep 13
Full
Sep 21
Last Quarter

Hourly Weather History & Observations

Time (CDT) Temp. Dew Point Humidity Pressure Visibility Wind Dir Wind Speed Gust Speed Precip Events Conditions
12:15 AM 53.6 °F 42.8 °F 67% 29.90 in 10.0 mi West 11.5 mph - N/A   Partly Cloudy
12:35 AM 51.8 °F 42.8 °F 71% 29.90 in 10.0 mi West 11.5 mph - N/A   Clear
12:55 AM 51.8 °F 42.8 °F 71% 29.90 in 10.0 mi West 12.7 mph 18.4 mph N/A   Clear
1:15 AM 51.8 °F 42.8 °F 71% 29.90 in 10.0 mi West 12.7 mph - N/A   Clear
1:35 AM 51.8 °F 42.8 °F 71% 29.90 in 10.0 mi West 12.7 mph - N/A   Clear
1:55 AM 51.8 °F 44.6 °F 76% 29.90 in 10.0 mi West 13.8 mph - N/A   Partly Cloudy
2:15 AM 51.8 °F 44.6 °F 76% 29.90 in 10.0 mi West 12.7 mph - N/A   Partly Cloudy
2:35 AM 50.0 °F 42.8 °F 76% 29.90 in 10.0 mi West 12.7 mph 18.4 mph N/A   Clear
2:55 AM 50.0 °F 44.6 °F 82% 29.90 in 10.0 mi West 11.5 mph 18.4 mph N/A   Clear
3:15 AM 50.0 °F 44.6 °F 82% 29.90 in 10.0 mi West 15.0 mph - N/A   Clear
3:35 AM 50.0 °F 44.6 °F 82% 29.90 in 10.0 mi West 16.1 mph - N/A   Mostly Cloudy
3:55 AM 50.0 °F 44.6 °F 82% 29.89 in 10.0 mi West 17.3 mph 24.2 mph N/A   Overcast
4:15 AM 50.0 °F 44.6 °F 82% 29.89 in 10.0 mi West 16.1 mph - N/A   Overcast
4:35 AM 50.0 °F 44.6 °F 82% 29.89 in 10.0 mi WNW 15.0 mph - N/A   Mostly Cloudy
4:55 AM 51.8 °F 46.4 °F 82% 29.89 in 10.0 mi West 13.8 mph 20.7 mph N/A   Mostly Cloudy
5:15 AM 51.8 °F 46.4 °F 82% 29.89 in 10.0 mi WNW 18.4 mph 26.5 mph N/A   Mostly Cloudy
5:35 AM 50.0 °F 46.4 °F 87% 29.89 in 10.0 mi WNW 18.4 mph 25.3 mph N/A   Overcast
5:55 AM 50.0 °F 46.4 °F 87% 29.90 in 10.0 mi WNW 18.4 mph 25.3 mph N/A   Overcast
6:15 AM 51.8 °F 46.4 °F 82% 29.90 in 10.0 mi WNW 18.4 mph 25.3 mph N/A   Overcast
6:35 AM 51.8 °F 46.4 °F 82% 29.90 in 10.0 mi WNW 18.4 mph 25.3 mph N/A   Overcast
6:55 AM 51.8 °F 46.4 °F 82% 29.90 in 10.0 mi WNW 17.3 mph 25.3 mph N/A   Overcast
7:15 AM 51.8 °F 48.2 °F 88% 29.91 in 10.0 mi WNW 15.0 mph 26.5 mph N/A   Overcast
7:35 AM 53.6 °F 48.2 °F 82% 29.91 in 10.0 mi WNW 18.4 mph 27.6 mph N/A   Overcast
7:55 AM 53.6 °F 48.2 °F 82% 29.92 in 10.0 mi WNW 19.6 mph 27.6 mph N/A   Overcast
8:15 AM 53.6 °F 50.0 °F 88% 29.92 in 10.0 mi WNW 18.4 mph 26.5 mph N/A   Overcast
8:35 AM 53.6 °F 50.0 °F 88% 29.93 in 10.0 mi WNW 19.6 mph 28.8 mph N/A   Overcast
8:55 AM 53.6 °F 50.0 °F 88% 29.93 in 10.0 mi NW 17.3 mph 29.9 mph N/A   Overcast
9:15 AM 55.4 °F 50.0 °F 82% 29.93 in 10.0 mi WNW 20.7 mph 28.8 mph N/A   Overcast
9:35 AM 55.4 °F 50.0 °F 82% 29.93 in 10.0 mi NW 19.6 mph 26.5 mph N/A   Overcast
9:55 AM 55.4 °F 50.0 °F 82% 29.94 in 10.0 mi NW 25.3 mph 32.2 mph N/A   Overcast
10:15 AM 55.4 °F 51.8 °F 88% 29.95 in 10.0 mi WNW 21.9 mph 32.2 mph N/A   Overcast
10:35 AM 53.6 °F 51.8 °F 94% 29.95 in 4.0 mi NW 20.7 mph 28.8 mph N/A   Overcast
10:55 AM 55.4 °F 51.8 °F 88% 29.95 in 10.0 mi NW 23.0 mph 29.9 mph N/A   Overcast
11:15 AM 57.2 °F 51.8 °F 82% 29.95 in 10.0 mi NW 20.7 mph 29.9 mph N/A   Overcast
11:35 AM 59.0 °F 51.8 °F 77% 29.95 in 10.0 mi NW 19.6 mph 31.1 mph N/A   Overcast
11:55 AM 59.0 °F 51.8 °F 77% 29.95 in 10.0 mi NW 20.7 mph 31.1 mph N/A   Overcast
12:15 PM 59.0 °F 51.8 °F 77% 29.96 in 10.0 mi NW 26.5 mph 33.4 mph N/A   Overcast
12:35 PM 60.8 °F 51.8 °F 72% 29.96 in 10.0 mi NW 25.3 mph 33.4 mph N/A   Overcast
12:55 PM 60.8 °F 50.0 °F 68% 29.96 in 10.0 mi NW 27.6 mph - N/A   Overcast
1:15 PM 60.8 °F 50.0 °F 68% 29.96 in 10.0 mi NW 24.2 mph 31.1 mph N/A   Overcast
1:35 PM 60.8 °F 50.0 °F 68% 29.96 in 10.0 mi NW 19.6 mph 34.5 mph N/A   Overcast
1:55 PM 60.8 °F 50.0 °F 68% 29.96 in 10.0 mi NW 25.3 mph 32.2 mph N/A   Overcast
2:15 PM 59.0 °F 53.6 °F 82% 29.97 in 4.0 mi NW 19.6 mph 33.4 mph N/A   Haze
2:35 PM 64.4 °F 50.0 °F 59% 29.96 in 10.0 mi NW 20.7 mph 29.9 mph N/A   Mostly Cloudy
2:55 PM 59.0 °F 55.4 °F 88% 29.97 in 6.0 mi NW 20.7 mph 36.8 mph N/A   Haze
3:15 PM 64.4 °F 51.8 °F 64% 29.96 in 10.0 mi NW 19.6 mph 36.8 mph N/A   Mostly Cloudy
3:35 PM 64.4 °F 50.0 °F 59% 29.96 in 10.0 mi NW 27.6 mph - N/A   Mostly Cloudy
3:55 PM 60.8 °F 51.8 °F 72% 29.97 in 10.0 mi NNW 21.9 mph 31.1 mph N/A   Mostly Cloudy
4:15 PM 64.4 °F 51.8 °F 64% 29.97 in 10.0 mi NNW 26.5 mph 35.7 mph N/A   Scattered Clouds
4:35 PM 62.6 °F 51.8 °F 68% 29.97 in 9.0 mi NNW 21.9 mph 31.1 mph N/A   Mostly Cloudy
4:55 PM 60.8 °F 50.0 °F 68% 29.97 in 10.0 mi NW 21.9 mph 27.6 mph N/A   Overcast
5:35 PM 60.8 °F 50.0 °F 68% 29.98 in 10.0 mi NW 16.1 mph 26.5 mph N/A   Overcast
5:55 PM 62.6 °F 50.0 °F 63% 29.98 in 10.0 mi NW 21.9 mph - N/A   Mostly Cloudy
6:15 PM 62.6 °F 50.0 °F 63% 29.98 in 10.0 mi NNW 18.4 mph 26.5 mph N/A   Mostly Cloudy
6:35 PM 62.6 °F 50.0 °F 63% 29.98 in 10.0 mi NW 17.3 mph 26.5 mph N/A   Mostly Cloudy
6:55 PM 62.6 °F 48.2 °F 59% 29.98 in 10.0 mi NW 17.3 mph 24.2 mph N/A   Mostly Cloudy
7:15 PM 62.6 °F 48.2 °F 59% 29.98 in 10.0 mi NW 19.6 mph - N/A   Overcast
7:35 PM 62.6 °F 48.2 °F 59% 29.98 in 10.0 mi NW 18.4 mph 24.2 mph N/A   Overcast
7:55 PM 62.6 °F 48.2 °F 59% 29.98 in 10.0 mi NW 13.8 mph 21.9 mph N/A   Overcast
8:15 PM 62.6 °F 48.2 °F 59% 29.98 in 10.0 mi NW 12.7 mph - N/A   Overcast
8:35 PM 60.8 °F 48.2 °F 63% 29.98 in 10.0 mi NW 13.8 mph 23.0 mph N/A   Overcast
8:55 PM 60.8 °F 48.2 °F 63% 29.98 in 10.0 mi NW 9.2 mph - N/A   Overcast
9:15 PM 57.2 °F 48.2 °F 72% 29.99 in 10.0 mi WNW 10.4 mph - N/A   Scattered Clouds
9:35 PM 57.2 °F 48.2 °F 72% 29.99 in 10.0 mi WNW 8.1 mph - N/A   Mostly Cloudy
9:55 PM 53.6 °F 50.0 °F 88% 29.99 in 10.0 mi West 8.1 mph - N/A   Scattered Clouds
10:15 PM 51.8 °F 50.0 °F 94% 30.00 in 10.0 mi West 6.9 mph - N/A   Scattered Clouds
10:35 PM 53.6 °F 51.8 °F 94% 30.00 in 10.0 mi West 8.1 mph - N/A   Mostly Cloudy
10:55 PM 51.8 °F 50.0 °F 94% 29.99 in 10.0 mi West 8.1 mph - N/A   Scattered Clouds
11:15 PM 53.6 °F 51.8 °F 94% 29.99 in 10.0 mi West 6.9 mph - N/A   Mostly Cloudy
11:35 PM 53.6 °F 51.8 °F 94% 29.99 in 10.0 mi West 8.1 mph - N/A   Mostly Cloudy
11:55 PM 51.8 °F 51.8 °F 100% 29.99 in 10.0 mi West 8.1 mph - N/A   Clear